Weather History for Springfield, VT

Change the Weather History Date:

Wednesday, November 21, 2012

  Actual Average Record
Temperature  
Mean Temperature 37 °F 35 °F  
Max Temperature 50 °F 44 °F 55 °F (1999)
Min Temperature 24 °F 27 °F 14 °F (2013)
Degree Days  
Heating Degree Days 28 30  
Month to date heating degree days 466 548  
Since 1 July heating degree days 1044 1357  
Moisture  
Dew Point 23 °F    
Average Humidity 62    
Maximum Humidity 92    
Minimum Humidity 31    
Precipitation  
Precipitation 0.00 in 0.13 in 0.44 in (2002)
Month to date precipitation 0.35 2.80  
Year to date precipitation 30.50 39.35  
Sea Level Pressure  
Sea Level Pressure 30.26 in    
Wind  
Wind Speed 0 mph (North)    
Max Wind Speed 3 mph    
Max Gust Speed 5 mph    
Visibility 9 miles    
Events      
T = Trace of Precipitation, MM = Missing Value Source: NWS Daily Summary

Daily Weather History Graph

Daily Weather History Graph

Search for Another Location

Airport:

Trip Planner

Search our weather history database for the weather conditions in past years. The results will help you decide how hot, cold, wet, or windy it might be!

Date:

Astronomy

Nov. 21, 2012 Rise Set
Actual Time 6:51 AM EST 4:20 PM EST
Civil Twilight 6:20 AM EST 4:51 PM EST
Nautical Twilight 5:45 AM EST 5:26 PM EST
Astronomical Twilight 5:11 AM EST 6:00 PM EST
Moon 12:45 PM EST (11/21) No Moon Set
Length of Visible Light 10h 31m
Length of Day
9h 28m
First Quarter, 61% of the Moon is Illuminated
Nov 21
First Quarter
Nov 28
Full
Dec 6
Last Quarter
Dec 13
New
Dec 20
First Quarter

Hourly Weather History & Observations

Time (EST) Temp. Windchill Dew Point Humidity Pressure Visibility Wind Dir Wind Speed Gust Speed Precip Events Conditions
12:54 AM 28.0 °F - 24.1 °F 85% 30.21 in 8.0 mi Calm Calm - N/A   Clear
1:54 AM 28.9 °F - 24.1 °F 82% 30.22 in 7.0 mi Calm Calm - N/A   Clear
2:54 AM 28.9 °F - 24.1 °F 82% 30.22 in 10.0 mi Calm Calm - N/A   Clear
3:54 AM 28.0 °F - 24.1 °F 85% 30.23 in 8.0 mi Calm Calm - N/A   Clear
4:54 AM 27.0 °F - 24.1 °F 89% 30.24 in 8.0 mi Calm Calm - N/A   Clear
5:54 AM 27.0 °F - 24.1 °F 89% 30.25 in 8.0 mi Calm Calm - N/A   Clear
6:54 AM 27.0 °F - 24.1 °F 89% 30.27 in 8.0 mi Calm Calm - N/A   Partly Cloudy
7:54 AM 27.0 °F - 24.1 °F 89% 30.30 in 5.0 mi Calm Calm - N/A   Clear
8:54 AM 30.0 °F - 26.1 °F 85% 30.31 in 8.0 mi Calm Calm - N/A   Mostly Cloudy
9:54 AM 32.0 °F - 26.1 °F 79% 30.30 in 8.0 mi Calm Calm - N/A   Clear
10:54 AM 37.0 °F - 26.1 °F 65% 30.28 in 10.0 mi Calm Calm - N/A   Clear
11:54 AM 44.1 °F - 25.0 °F 47% 30.25 in 10.0 mi Calm Calm - N/A   Clear
12:54 PM 48.0 °F - 24.1 °F 39% 30.24 in 10.0 mi Calm Calm - N/A   Clear
1:54 PM 48.9 °F - 21.0 °F 33% 30.23 in 10.0 mi Calm Calm - N/A   Clear
2:54 PM 48.9 °F - 19.9 °F 32% 30.23 in 10.0 mi Calm Calm - N/A   Clear
3:54 PM 45.0 °F 43.5 °F 21.9 °F 40% 30.24 in 10.0 mi North 3.5 mph - N/A   Clear
5:54 PM 30.9 °F - 21.9 °F 69% 30.27 in 10.0 mi Calm Calm - N/A   Clear
6:54 PM 28.9 °F - 21.9 °F 75% 30.29 in 10.0 mi Calm Calm - N/A   Clear
7:54 PM 28.0 °F - 21.9 °F 78% 30.30 in 10.0 mi Calm Calm - N/A   Clear
8:54 PM 27.0 °F - 21.0 °F 78% 30.31 in 9.0 mi Calm Calm - N/A   Clear
9:54 PM 26.1 °F - 21.0 °F 81% 30.30 in 10.0 mi Calm Calm - N/A   Clear
10:54 PM 25.0 °F - 19.9 °F 81% 30.30 in 10.0 mi Calm Calm - N/A   Clear
11:54 PM 25.0 °F - 19.9 °F 81% 30.30 in 8.0 mi Calm Calm - N/A   Clear